Weather History for Yoho Park, BC

Change the Weather History Date:

Sunday, February 17, 2013

  Actual Average Record
Temperature  
Mean Temperature 24 °F -  
Max Temperature 27 °F - - ()
Min Temperature 22 °F - - ()
Degree Days  
Heating Degree Days 40    
Moisture  
Dew Point 24 °F    
Average Humidity 94    
Maximum Humidity 96    
Minimum Humidity 89    
Precipitation  
Precipitation 0.00 in - - ()
Sea Level Pressure  
Sea Level Pressure 29.99 in    
Wind  
Wind Speed 7 mph ()    
Max Wind Speed 13 mph    
Max Gust Speed -    
T = Trace of Precipitation, MM = Missing Value Source: Averaged Metar Reports

Daily Weather History Graph

Daily Weather History Graph

Search for Another Location

Airport:

Trip Planner

Search our weather history database for the weather conditions in past years. The results will help you decide how hot, cold, wet, or windy it might be!

Date:

Astronomy

Feb. 17, 2013 Rise Set
Actual Time 7:54 AM MST 6:05 PM MST
Civil Twilight 7:20 AM MST 6:39 PM MST
Nautical Twilight 6:41 AM MST 7:18 PM MST
Astronomical Twilight 6:02 AM MST 7:56 PM MST
Moon 10:55 AM MST (2/17) 1:58 AM MST (2/17)
Length of Visible Light 11h 19m
Length of Day
10h 10m
Waxing Crescent, 49% of the Moon is Illuminated
Feb 17
Waxing Crescent
Feb 17
First Quarter
Feb 25
Full
Mar 4
Last Quarter
Mar 11
New

Hourly Weather History & Observations

Time (MST) Temp. Windchill Dew Point Humidity Pressure Visibility Wind Dir Wind Speed Gust Speed Precip Events Conditions
12:00 AM 25.9 °F 15.3 °F 24.8 °F 96% 29.84 in - WSW 11.5 mph - N/A   Unknown
1:00 AM 25.7 °F 19.0 °F 24.6 °F 96% 29.86 in - WSW 5.8 mph - N/A   Unknown
2:00 AM 25.5 °F 16.9 °F 24.6 °F 96% 29.87 in - SW 8.1 mph - N/A   Unknown
3:00 AM 25.7 °F 17.1 °F 24.8 °F 96% 29.88 in - WSW 8.1 mph - N/A   Unknown
4:00 AM 25.3 °F 15.3 °F 24.4 °F 96% 29.88 in - West 10.4 mph - N/A   Unknown
5:00 AM 25 °F - 24 °F 96% 29.90 in - WSW 9.2 mph - -  
5:00 AM 25.2 °F 15.7 °F 24.3 °F 96% 29.90 in - WSW 9.2 mph - N/A   Unknown
6:00 AM 25.0 °F 16.3 °F 24.1 °F 96% 29.91 in - SW 8.1 mph - N/A   Unknown
7:00 AM 25.0 °F 18.1 °F 24.1 °F 96% 29.94 in - WSW 5.8 mph - N/A   Unknown
8:00 AM 24.3 °F 19.9 °F 23.4 °F 96% 29.94 in - SW 3.5 mph - N/A   Unknown
9:00 AM 23.7 °F 14.0 °F 22.6 °F 96% 29.97 in - WSW 9.2 mph - N/A   Unknown
10:00 AM 24.3 °F 12.7 °F 23.2 °F 96% 29.98 in - WSW 12.7 mph - N/A   Unknown
11:00 AM 26 °F - 24 °F 91% 29.98 in - WSW 8.1 mph - -  
11:00 AM 25.5 °F 16.9 °F 24.4 °F 96% 29.98 in - WSW 8.1 mph - N/A   Unknown
12:00 PM 25.9 °F 16.6 °F 24.8 °F 96% 29.99 in - SW 9.2 mph - N/A   Unknown
1:00 PM 26.8 °F 17.1 °F 25.5 °F 95% 29.99 in - WSW 10.4 mph - N/A   Unknown
2:00 PM 27.1 °F 16.9 °F 25.9 °F 95% 29.99 in - WSW 11.5 mph - N/A   Unknown
3:00 PM 27.1 °F 21.8 °F 25.9 °F 95% 30.01 in - West 4.6 mph - N/A   Unknown
4:00 PM 26.8 °F 18.5 °F 25.3 °F 94% 30.02 in - WSW 8.1 mph - N/A   Unknown
5:00 PM 26 °F - 25 °F 93% 30.05 in - WNW 3.5 mph - -  
5:00 PM 26.2 °F 22.1 °F 24.8 °F 94% 30.05 in - WNW 3.5 mph - N/A   Unknown
6:00 PM 25.7 °F 20.1 °F 24.3 °F 94% 30.06 in - ENE 4.6 mph - N/A   Unknown
7:00 PM 24.6 °F - 22.8 °F 93% 30.07 in - East 1.2 mph - N/A   Unknown
8:00 PM 22.8 °F - 20.1 °F 89% 30.10 in - West 2.3 mph - N/A   Unknown
9:00 PM 22.8 °F - 20.7 °F 91% 30.11 in - ESE 1.2 mph - N/A   Unknown
10:00 PM 22.6 °F - 20.7 °F 92% 30.11 in - ENE 1.2 mph - N/A   Unknown
11:00 PM 22 °F - 20 °F 91% 30.11 in - ESE 1.2 mph - -  
11:00 PM 22.5 °F - 20.5 °F 92% 30.11 in - ESE 1.2 mph - N/A   Unknown